Regional Weather Roundup
Issued by NWS

Home | Current Version | Previous Version | Graphics & Text | Print | Product List | Glossary On
Versions: 1 2 3 4 5 6 7 8 9 10 11 12 13 14 15 16 17 18 19 20 21 22 23 24 25 26 27 28 29 30 31 32 33 34 35 36 37 38 39 40 41 42 43 44 45 46 47 48 49 50
000
ASUS43 KDMX 031707
RWRIA

WEATHER ROUNDUP FOR IOWA
NATIONAL WEATHER SERVICE DES MOINES IA
1100 AM CST TUE MAR 03 2015

NOTE: "FAIR" INDICATES FEW OR NO CLOUDS BELOW 12,000 FEET WITH NO
SIGNIFICANT WEATHER AND/OR OBSTRUCTIONS TO VISIBILITY.

* - THESE STATIONS ARE NOT NWS STATIONS...THUS NOT UNDER NWS
QUALITY CONTROL.  THEY ALSO DO NOT REPORT WEATHER SUCH
AS PRECIPITATION OR FOG.

IAZ001>003-012>014-020>022-031>034-043>046-031800-
   NORTHWEST IOWA

CITY           SKY/WX    TMP DP  RH WIND       PRES   REMARKS
CARROLL *      CLOUDY    30  30 100 NW16      29.73R FOG     WCI  19
CHEROKEE *     PTSUNNY   32  27  80 NW18G26   29.75R WCI  20
DENISON *      CLOUDY    30  30 100 NW20G25   29.74R WCI  18
LE MARS *      CLOUDY    32  27  80 NW23G29   29.80R WCI  19
ORANGE CITY *  CLOUDY    30  25  80 NW16G24   29.77R WCI  19
SHELDON *      CLOUDY    30  25  80 NW24G35   29.75R WCI  16
SIOUX CITY     CLOUDY    33  25  72 NW22G30   29.79R WCI  21
SPENCER        MOSUNNY   33  25  72 NW20G28   29.72R WCI  21
STORM LAKE *   CLOUDY    30  27  86 NW22G28   29.72R WCI  17
$$

IAZ055>058-069>071-079>083-090>094-031800-
   SOUTHWEST IOWA

CITY           SKY/WX    TMP DP  RH WIND       PRES   REMARKS
ATLANTIC *     CLOUDY    32  30  93 NW21      29.75R WCI  20
AUDUBON *      SUNNY     30  28  93 NW12G20   29.75R FOG     WCI  21
CLARINDA *     CLOUDY    36  34  93 NW16G30   29.79R WCI  26
COUNCIL BLFS * CLOUDY    32  32 100 NW17G25   29.76R WCI  21
CRESTON *      CLOUDY    34  34 100 NW24G31   29.72R FOG     WCI  21
HARLAN  *      CLOUDY    32  32 100 NW20G25   29.79R WCI  20
LAMONI         CLOUDY    36  35  96 W10       29.72R FOG     WCI  28
RED OAK *      CLOUDY    34  32  93 NW15G21   29.76R FOG     WCI  24
SHENANDOAH *   CLOUDY    36  32  87 NW18G25   29.79R WCI  25
$$

IAZ047>049-059>061-072>074-084-031800-
   CENTRAL IOWA

CITY           SKY/WX    TMP DP  RH WIND       PRES   REMARKS
AMES           CLOUDY    32  29  88 W13       29.72R FOG     WCI  22
ANKENY *       CLOUDY    34  34 100 W14       29.72R FOG     WCI  24
CHARITON *     CLOUDY    36  34  93 W10G16    29.71R FOG     WCI  28
DES MOINES     DRIZZLE   35  32  88 NW15      29.72R FOG     WCI  25
GRINNELL*      LGT RAIN  32  32 100 W8        29.69R WCI  25
KNOXVILLE *    CLOUDY    34  32  93 W12       29.69R FOG     WCI  25
MARSHALLTOWN   CLOUDY    32  30  92 W15       29.68R FOG     WCI  22
PELLA *        CLOUDY    34  34 100 W6        29.71S FOG     WCI  29
PERRY *          N/A     34  32  93 W16G23    29.72R FOG     WCI  23
$$

IAZ004>006-015-016-023>025-035-036-031800-
   NORTH CENTRAL IOWA

CITY           SKY/WX    TMP DP  RH WIND       PRES   REMARKS
ALGONA *       MOSUNNY   30  28  93 NW16      29.70F WCI  19
CLARION *      PTSUNNY   28  30 100 W17       29.70R FOG     WCI  16
ESTHERVILLE    PTSUNNY   30  24  78 NW21G30   29.71R WCI  17
FORT DODGE *   CLOUDY    28  27  93 W9        29.72S WCI  20
MASON CITY     CLOUDY    28  25  88 W14       29.70R FOG     WCI  17
FOREST CITY *  LGT SNOW  30  27  86 W14       29.68S WCI  20
IOWA FALLS *   CLOUDY    30  28  93 W14       29.69S FOG     WCI  20
$$

IAZ007>011-017>019-026>030-037>042-050>054-066-031800-
   NORTHEAST IOWA

CITY           SKY/WX    TMP DP  RH WIND       PRES   REMARKS
CEDAR RAPIDS   CLOUDY    31  30  96 SW13      29.66F FOG     WCI  21
CHARLES CITY * CLOUDY    28  28 100 W10       29.67S FOG     WCI  19
CLINTON *      CLOUDY    30  28  93 CALM      29.70F
DECORAH *      CLOUDY    27  27 100 VRB5      29.65R FOG     WCI  21
DUBUQUE          N/A     30  28  92 MISG      29.64F
MONTICELLO *   CLOUDY    32  32 100 SW13      29.66F FOG     WCI  22
OELWEIN *      CLOUDY    30  30 100 W13       29.66S FOG     WCI  20
WATERLOO       CLOUDY    31  30  96 W8        29.67S FOG     WCI  23
$$

IAZ064-065-067-068-078-031800-
   EAST CENTRAL IOWA

CITY           SKY/WX    TMP DP  RH WIND       PRES   REMARKS
DAVENPORT      CLOUDY    32  28  85 SW17      29.68S FOG     WCI  21
IOWA CITY      CLOUDY    32  30  92 SW7       29.71S FOG     WCI  26
MT. PLEASANT * CLOUDY    32  32 100 S12       29.71S FOG     WCI  23
MUSCATINE *    CLOUDY    34  32  93 SW12      29.70S FOG     WCI  25
QUAD CITIES    CLOUDY    32  29  88 SW10      29.69F FOG     WCI  24
$$

IAZ062-063-075>077-085>089-095>099-031800-
   SOUTHEAST IOWA

CITY           SKY/WX    TMP DP  RH WIND       PRES   REMARKS
BURLINGTON     CLOUDY    33  32  96 SW13      29.71F FOG     WCI  24
FAIRFIELD *    CLOUDY    32  32 100 SW8       29.71R FOG     WCI  25
FORT MADISON * FOG       32  32 100 S12       29.72S VSB 1   WCI  23
KEOKUK *       FOG       34  34 100 SW10      29.71F VSB 1   WCI  26
OSKALOOSA *    FOG       32  32 100 W5        29.70R VSB 1   WCI  27
CENTERVILLE *  CLOUDY    36  36 100 SW13      29.72R WCI  27
OTTUMWA        CLOUDY    33  32  96 SW7       29.69S FOG     WCI  27
WASHINGTON *   CLOUDY    32  32 100 SW13      29.70R FOG     WCI  22
$$

ABBREVIATIONS USED IN REMARKS
   TC - TEMPERATURES IN CELSIUS
  WCI - WIND CHILL INDEX
   HX - HEAT INDEX
  VSB - VISIBILITY
$$




USA.gov is the U.S. government's official web portal to all federal, state and local government web resources and services.